Location: Lamy Ridge Observatory
(35.5010°N, 105.8759°W)
Time: 18:26:05
(UTC-06:00)

ACS3 Solar Sail - Pass Details

Date: 15 September 2024
Orbit: 963 x 1036 km, 97.4° (Epoch: 04 October)

Event Time Altitude Azimuth Distance (km) Brightness Sun altitude
Exits shadow 20:43:44 33° 110° (ESE) 1,671 2.4 -19.6°
Maximum altitude 20:45:43 41° 71° (ENE) 1,459 2.3 -20.0°
Drops below altitude 10° 20:51:39 10° 4° (N) 2,841 4.4 -21.2°
Enters shadow 22:03:34 -41° 176° (S) 9,742 6.9 -34.3°
